HISPASAT 30W-5

Last updated on Fri Sep 11 2026 00:02:56 GMT+0000 (Coordinated Universal Time)

1 37264U 10070A 26253.43500920 -.00000236 00000+0 00000+0 0 9991 2 37264 0.0316 119.6553 0005565 47.0979 309.3331 1.00271939 54048
UTC large
Height (km)
Speed (km/s)
/
Latitude / Longitude
Inclination (degrees)
Orbital Period (minutes)
Azimuth
Elevation
Range (km)
Doppler Factor

Next 0 passes for location: London (51.5072 / 0.1276)

No passes found over London.
HISPASAT 30W-5